Location: Ar Ranvel
(48.3000°N, 4.8833°W)
Time: 02:59:03
(UTC+00:00)

Cosmos 2322 Rocket - Pass Details

Date: 24 October 2021
Orbit: 832 x 851 km, 71.0° (Epoch: 01 December)

Event Time Altitude Azimuth Distance (km) Brightness Sun altitude
Rises 18:02:58 0° 180° (S) 3,363 5.4 -8.8°
Reaches altitude 10° 18:05:32 10° 172° (S) 2,434 4.6 -9.2°
Maximum altitude 18:10:37 37° 107° (ESE) 1,268 2.7 -10.1°
Drops below altitude 10° 18:15:44 10° 41° (NE) 2,454 4.2 -10.9°
Enters shadow 18:18:18 - 34° (NE) 3,383 5.0 -11.4°
